N8WJE Weather Reports


Display with metric or nautical units.
time (UTC)temp
F
wind
direction
speed
MPH
gust
MPH
rain 1hr
in
rain 24hr
in
rain mn
in
humidity
%
barometer
mb
20260504110503 47 0 0.0 0.0 0.00 0.00 0.00 89 1016.4
20260504100503 48 0 0.0 0.0 0.00 0.00 0.00 87 1016.4
20260504082003 50 0 0.0 0.0 0.00 0.00 0.00 83 1016.3
20260504081503 50 0 0.0 0.0 0.00 0.00 0.00 83 1016.2
20260504081217 50 0 0.0 0.0 0.00 0.00 0.00 83 1016.3
20260504080503 50 0 0.0 0.0 0.00 0.00 0.00 82 1016.3
20260504050503 53 275 0.0 1.0 0.00 0.00 0.00 77 1017.8
20260504050003 54 275 0.0 4.0 0.00 0.00 0.00 74 1017.8
20260504045503 54 275 0.0 4.0 0.00 0.00 0.00 74 1017.7
20260504045003 54 275 0.0 1.0 0.00 0.00 0.00 75 1017.8
20260504044717 54 275 0.0 1.0 0.00 0.00 0.00 73 1017.9
20260504044218 54 275 0.0 1.0 0.00 0.00 0.00 74 1017.7
20260504043503 54 275 0.0 3.0 0.00 0.00 0.00 75 1017.8
20260504043003 54 0 0.0 0.0 0.00 0.00 0.00 73 1017.7
20260504042503 55 275 0.0 1.0 0.00 0.00 0.00 72 1017.7
20260504042003 54 275 0.0 1.0 0.00 0.00 0.00 73 1017.9
20260504041503 55 0 0.0 0.0 0.00 0.00 0.00 74 1017.7
20260504041003 56 275 1.0 4.0 0.00 0.00 0.00 69 1017.6
20260504040716 56 275 1.0 4.0 0.00 0.00 0.00 68 1017.5
20260504040003 56 275 0.0 6.0 0.00 0.00 0.00 67 1017.6
20260504035503 56 275 1.0 4.0 0.00 0.00 0.00 66 1017.6
20260504035217 56 275 1.0 4.0 0.00 0.00 0.00 66 1017.5
20260504034716 56 275 1.0 4.0 0.00 0.00 0.00 67 1017.7
20260504034003 56 275 0.0 3.0 0.00 0.00 0.00 67 1017.8
20260504033503 56 275 1.0 3.0 0.00 0.00 0.00 67 1017.8
20260504033003 55 275 0.0 3.0 0.00 0.00 0.00 69 1017.8
20260504032503 54 275 0.0 3.0 0.00 0.00 0.00 72 1018.2
20260504032003 53 0 0.0 0.0 0.00 0.00 0.00 75 1018.2
20260504031503 53 0 0.0 0.0 0.00 0.00 0.00 75 1018.2
20260504031217 53 0 0.0 0.0 0.00 0.00 0.00 75 1018.3
20260504030716 53 0 0.0 0.0 0.00 0.00 0.00 75 1018.4
20260504030003 53 0 0.0 0.0 0.00 0.00 0.00 73 1018.5
20260504025503 53 0 0.0 0.0 0.00 0.00 0.00 73 1018.4
20260504025003 53 0 0.0 0.0 0.00 0.00 0.00 74 1018.6
20260504024718 54 0 0.0 0.0 0.00 0.00 0.00 74 1018.5
20260504024003 54 0 0.0 0.0 0.00 0.00 0.00 73 1018.2
20260504023718 54 0 0.0 0.0 0.00 0.00 0.00 71 1018.3
20260504023003 54 0 0.0 0.0 0.00 0.00 0.00 71 1018.2
20260504022503 54 0 0.0 0.0 0.00 0.00 0.00 72 1018.3
20260504022003 55 0 0.0 0.0 0.00 0.00 0.00 69 1018.3
20260504021718 55 0 0.0 0.0 0.00 0.00 0.00 69 1018.2
20260504021217 55 0 0.0 0.0 0.00 0.00 0.00 70 1018.2
20260504020503 55 0 0.0 0.0 0.00 0.00 0.00 69 1018.1
20260504020004 56 0 0.0 0.0 0.00 0.00 0.00 68 1018.0
20260504015503 56 0 0.0 0.0 0.00 0.00 0.00 67 1017.9
20260504015217 56 0 0.0 0.0 0.00 0.00 0.00 69 1018.0
20260504014503 56 0 0.0 0.0 0.00 0.00 0.00 66 1018.0
20260504014003 56 0 0.0 0.0 0.00 0.00 0.00 67 1017.7
20260504013503 57 0 0.0 0.0 0.00 0.00 0.00 63 1017.5
20260504013003 57 0 0.0 0.0 0.00 0.00 0.00 64 1017.4
20260504012503 57 0 0.0 0.0 0.00 0.00 0.00 65 1017.4
20260504012003 57 0 0.0 0.0 0.00 0.00 0.00 66 1017.4
20260504011718 57 0 0.0 0.0 0.00 0.00 0.00 64 1017.4
20260504011003 58 0 0.0 0.0 0.00 0.00 0.00 62 1017.3
20260504010503 58 0 0.0 0.0 0.00 0.00 0.00 59 1017.3
20260504010003 59 0 0.0 0.0 0.00 0.00 0.00 59 1017.3
20260504005503 59 0 0.0 0.0 0.00 0.00 0.00 58 1017.5
20260504005003 59 0 0.0 0.0 0.00 0.00 0.00 56 1017.4
20260504004503 60 0 0.0 0.0 0.00 0.00 0.00 58 1017.4
20260504004216 60 0 0.0 0.0 0.00 0.00 0.00 52 1017.4
20260504003503 60 0 0.0 0.0 0.00 0.00 0.00 53 1017.3
20260504003003 61 0 0.0 0.0 0.00 0.00 0.00 52 1017.4
20260504002503 61 0 0.0 0.0 0.00 0.00 0.00 52 1017.3
20260504002003 62 0 0.0 0.0 0.00 0.00 0.00 51 1017.5
20260504001503 62 0 0.0 0.0 0.00 0.00 0.00 51 1017.5
20260504001003 63 0 0.0 0.0 0.00 0.00 0.00 48 1017.6
20260504000717 63 0 0.0 0.0 0.00 0.00 0.00 50 1017.5
20260504000003 64 0 0.0 0.0 0.00 0.00 0.00 46 1017.6
20260503235503 64 0 0.0 0.0 0.00 0.00 0.00 43 1017.7
20260503235003 65 0 0.0 0.0 0.00 0.00 0.00 45 1017.6
20260503234503 65 0 0.0 0.0 0.00 0.00 0.00 42 1017.7
20260503234003 65 0 0.0 0.0 0.00 0.00 0.00 45 1017.7
20260503233503 65 276 0.0 3.0 0.00 0.00 0.00 44 1017.9
20260503233003 66 276 1.0 4.0 0.00 0.00 0.00 39 1017.8
20260503232503 66 276 1.0 4.0 0.00 0.00 0.00 39 1017.6
20260503232003 66 276 1.0 6.0 0.00 0.00 0.00 39 1017.7
20260503231503 66 276 1.0 6.0 0.00 0.00 0.00 40 1017.7
20260503231003 66 276 1.0 4.0 0.00 0.00 0.00 38 1017.8
20260503230503 66 276 0.0 3.0 0.00 0.00 0.00 38 1017.9
20260503230003 66 276 1.0 3.0 0.00 0.00 0.00 40 1017.7
20260503225503 66 276 1.0 4.0 0.00 0.00 0.00 39 1017.7
20260503225003 66 276 1.0 4.0 0.00 0.00 0.00 38 1017.8
20260503224503 66 276 1.0 8.0 0.00 0.00 0.00 39 1017.9
20260503224003 66 276 1.0 8.0 0.00 0.00 0.00 40 1017.9
20260503223503 66 276 0.0 4.0 0.00 0.00 0.00 40 1017.8
20260503223003 66 276 0.0 3.0 0.00 0.00 0.00 42 1017.9
20260503222717 66 276 0.0 4.0 0.00 0.00 0.00 39 1017.9
20260503222003 66 276 0.0 4.0 0.00 0.00 0.00 41 1017.9
20260503221716 66 0 0.0 0.0 0.00 0.00 0.00 43 1018.0
20260503221003 66 225 0.0 1.0 0.00 0.00 0.00 40 1018.0
20260503220503 66 225 0.0 1.0 0.00 0.00 0.00 41 1018.1
20260503220003 66 0 0.0 0.0 0.00 0.00 0.00 40 1018.1
20260503215716 66 0 0.0 0.0 0.00 0.00 0.00 41 1018.2
20260503215003 66 0 0.0 0.0 0.00 0.00 0.00 40 1018.3
20260503214503 66 190 1.0 8.0 0.00 0.00 0.00 39 1018.2
20260503214003 66 213 1.0 8.0 0.00 0.00 0.00 40 1018.2
20260503213718 66 243 1.0 8.0 0.00 0.00 0.00 40 1018.2
20260503213217 67 274 1.0 4.0 0.00 0.00 0.00 39 1018.5
20260503212503 67 274 1.0 6.0 0.00 0.00 0.00 42 1018.5
20260503212003 68 274 3.0 8.0 0.00 0.00 0.00 39 1018.5
20260503211503 68 274 1.0 8.0 0.00 0.00 0.00 40 1018.5
20260503211003 68 274 3.0 8.0 0.00 0.00 0.00 39 1018.8
20260503210503 68 274 3.0 8.0 0.00 0.00 0.00 39 1018.8
20260503210003 68 274 1.0 8.0 0.00 0.00 0.00 37 1018.8
20260503205503 67 274 1.0 6.0 0.00 0.00 0.00 43 1018.8
20260503205003 67 274 3.0 8.0 0.00 0.00 0.00 44 1018.7
20260503204503 68 274 3.0 8.0 0.00 0.00 0.00 42 1018.8
20260503204003 68 274 1.0 6.0 0.00 0.00 0.00 38 1018.9
20260503203718 69 274 1.0 6.0 0.00 0.00 0.00 37 1018.9
20260503203003 69 274 3.0 6.0 0.00 0.00 0.00 41 1018.9
20260503202503 68 257 3.0 6.0 0.00 0.00 0.00 40 1018.9
20260503202003 67 223 3.0 10.0 0.00 0.00 0.00 39 1019.0
20260503201503 67 256 3.0 10.0 0.00 0.00 0.00 38 1019.0
20260503201003 68 273 3.0 10.0 0.00 0.00 0.00 38 1019.1
20260503200503 70 273 3.0 6.0 0.00 0.00 0.00 37 1019.1
20260503200004 68 273 1.0 6.0 0.00 0.00 0.00 38 1019.3
20260503195503 66 273 1.0 6.0 0.00 0.00 0.00 39 1019.4
20260503195003 68 273 1.0 8.0 0.00 0.00 0.00 38 1019.4
20260503194503 68 273 1.0 8.0 0.00 0.00 0.00 42 1019.7
20260503194003 67 273 1.0 8.0 0.00 0.00 0.00 44 1019.6
20260503193717 67 273 1.0 10.0 0.00 0.00 0.00 44 1019.8
20260503193003 66 273 1.0 10.0 0.00 0.00 0.00 45 1020.0
20260503192503 67 273 1.0 8.0 0.00 0.00 0.00 46 1020.1
20260503192003 66 273 1.0 8.0 0.00 0.00 0.00 44 1020.3
20260503191503 67 273 3.0 8.0 0.00 0.00 0.00 44 1020.4
20260503191003 67 273 3.0 8.0 0.00 0.00 0.00 45 1020.4
20260503190717 66 273 1.0 8.0 0.00 0.00 0.00 46 1020.5
20260503190003 66 273 3.0 10.0 0.00 0.00 0.00 52 1020.3
20260503185503 65 273 3.0 10.0 0.00 0.00 0.00 46 1020.6
20260503185003 66 243 3.0 11.0 0.00 0.00 0.00 46 1020.6
20260503184503 65 202 3.0 11.0 0.00 0.00 0.00 49 1020.7
20260503184003 65 197 1.0 10.0 0.00 0.00 0.00 48 1020.6
20260503183503 64 199 1.0 6.0 0.00 0.00 0.00 47 1020.5
20260503183003 64 179 1.0 6.0 0.00 0.00 0.00 44 1020.7
20260503182503 64 203 3.0 10.0 0.00 0.00 0.00 49 1020.8
20260503182003 64 249 1.0 10.0 0.00 0.00 0.00 47 1020.8
20260503181504 64 272 1.0 6.0 0.00 0.00 0.00 47 1020.8
20260503181218 64 272 1.0 6.0 0.00 0.00 0.00 48 1020.8
20260503180503 64 272 1.0 4.0 0.00 0.00 0.00 46 1020.8
20260503180003 63 272 3.0 8.0 0.00 0.00 0.00 49 1020.8
20260503175503 63 272 1.0 8.0 0.00 0.00 0.00 48 1020.8
20260503175003 62 272 0.0 6.0 0.00 0.00 0.00 48 1020.9
20260503174503 62 209 1.0 7.0 0.00 0.00 0.00 49 1021.1
20260503174003 62 194 4.0 13.0 0.00 0.00 0.00 52 1021.2
20260503173503 61 195 4.0 14.0 0.00 0.00 0.00 50 1021.2
20260503173003 61 206 1.0 14.0 0.00 0.00 0.00 50 1021.1
20260503172717 61 271 1.0 10.0 0.00 0.00 0.00 50 1021.3
20260503172003 61 271 1.0 10.0 0.00 0.00 0.00 51 1021.3
20260503171503 60 271 1.0 10.0 0.00 0.00 0.00 50 1021.4
20260503171003 60 271 1.0 6.0 0.00 0.00 0.00 51 1021.5
20260503170503 60 271 1.0 6.0 0.00 0.00 0.00 53 1021.3
20260503170217 59 271 1.0 10.0 0.00 0.00 0.00 52 1021.5
20260503151003 55 271 1.0 6.0 0.00 0.00 0.00 57 1021.9
20260503150503 55 271 0.0 3.0 0.00 0.00 0.00 63 1021.9
20260503131003 49 0 0.0 0.0 0.00 0.00 0.00 86 1021.7
20260503130503 49 0 0.0 0.0 0.00 0.00 0.00 86 1021.5